Wednesday, April 23, 2014
06:41 UTC
  |  Log In   |  Register Free
Airport Search:

Smithville Municipal Airport
(0A3)

Smithville Municipal Airport Diagram
No Airport Diagram Available

FAA data valid effective April 3, 2014 until May 29, 2014 (unless otherwise noted).

 
 
 
 
 
 
 
 
 
 
 
 
 
 

Current Aviation Weather for Smithville Municipal Airport (0A3)

The most recent METAR observation for KSRB was updated at: 0555 UTC
METAR Summary (Translated METAR)
KSRB
230555Z AUTO 00000KT 10SM CLR 08/04 A2994 RMK
KCSV
(22.5 nm SE from KSRB)
230553Z AUTO 31003KT 10SM CLR 12/02 A2994 RMK AO2 SLP129 T01220017 10189 20122 402110122 51005
TAF Summary (Translated TAF)
KCSV
(22.5 nm SE from KSRB)
230520Z 2306/2406 31010KT P6SM BKN035 FM230900 35006KT P6SM SKC FM231500 03007KT P6SM SCT070 FM240000 00000KT P6SM SKC
  Airport Weather Conditions for 0A3

Current weather conditions are
not available for 0A3


The nearest NOAA weather station
is at SRB, (14.2 nm NE from 0A3)
  
 Current Weather at SRB
46° F
Fair
North winds at 0.0 mph
SRB NOAA Radar

Pressure: 29.94 in
Humidity: 76%
Wind: Calm
Dew Point: 39.2°F
Visibility: 10.00 mi


Airport Weather Forecast for 0A3

Translated METAR and TAF for KSRB
Translated METAR for KSRB (0641 UTC 23 April 2014)
found at http://aviationweather.gov/adds/metars/
 
METAR text: KSRB 230635Z AUTO 00000KT 10SM CLR 09/03 A2994 RMK
Conditions at: KSRB (SPARTA , TN, US) observed 0635 UTC 23 April 2014
Temperature: 9.0°C (48°F)
Dewpoint: 3.0°C (37°F) [RH = 66%]
Pressure (altimeter): 29.94 inches Hg (1014.0 mb)
Winds: calm
Visibility: 10 or more miles (16+ km)
Ceiling: at least 12,000 feet AGL
Clouds: sky clear below 12,000 feet AGL
Weather: no significant weather observed at this time
Translated TAF for KSRB

There is no translated TAF available for this airport

Find All Airport Services Find A Hotel Find A Rental Car Find A Golf Course Find A Restaurant $100 Hamburger



FBO's on the Field
FBO Company Facility Photos Services Transportation Aviation Fuel Prices: Prices include tax
Catering Weather Repair Courtesy Rental Type 100LL JetA JetA+ MOGAS 8087
 
Smithville Municipal Airport

This FBO has not yet been rated
FS:Shell
Last Updated: Mar-24
Login to update fuel prices
SS:
Contact Smithville Municipal AirportMore FBO Information
 
Add another FBO Facility Photos Catering Weather Repair Courtesy Rental Type 100LL JetA JetA+ MOGAS 8087
Services Transportation Aviation Fuel Prices: Prices include tax


GlobalAir.com Airport Resource Center model-print
model-print
model-print
model-print